Weather History for Bangor, ME

Change the Weather History Date:

Wednesday, January 16, 2013

  Actual Average Record
Temperature  
Mean Temperature 28 °F 16 °F  
Max Temperature 32 °F 27 °F 54 °F (1932)
Min Temperature 24 °F 6 °F -25 °F (2009)
Degree Days  
Heating Degree Days 37 49  
Month to date heating degree days 694 761  
Since 1 July heating degree days 3488 3682  
Cooling Degree Days 0 0  
Month to date cooling degree days 0 0  
Year to date cooling degree days 0 0  
Moisture  
Dew Point 25 °F    
Average Humidity 84    
Maximum Humidity 100    
Minimum Humidity 68    
Precipitation  
Precipitation 0.20 in 0.09 in 1.53 in (1936)
Month to date precipitation 0.27 1.50  
Year to date precipitation 0.27 1.50  
Snow  
Snow 2.60 in 0.60 in 14.00 in (2000)
Month to date snowfall 3.6 10.1  
Since 1 July snowfall 25.2 26.9  
Snow Depth 1.00 in    
Sea Level Pressure  
Sea Level Pressure 30.00 in    
Wind  
Wind Speed 3 mph (East)    
Max Wind Speed 8 mph    
Max Gust Speed 10 mph    
Visibility 3 miles    
Events Fog , Snow    
T = Trace of Precipitation, MM = Missing Value Source: NWS Daily Summary

Daily Weather History Graph

Daily Weather History Graph

Search for Another Location

Airport:

Trip Planner

Search our weather history database for the weather conditions in past years. The results will help you decide how hot, cold, wet, or windy it might be!

Date:

Astronomy

Jan. 16, 2013 Rise Set
Actual Time 7:08 AM EST 4:22 PM EST
Civil Twilight 6:36 AM EST 4:54 PM EST
Nautical Twilight 5:59 AM EST 5:30 PM EST
Astronomical Twilight 5:24 AM EST 6:05 PM EST
Moon 9:27 AM EST (1/16) 10:27 PM EST (1/16)
Length of Visible Light 10h 18m
Length of Day
9h 13m
Waxing Crescent, 28% of the Moon is Illuminated
Jan 16
Waxing Crescent
Jan 18
First Quarter
Jan 26
Full
Feb 3
Last Quarter
Feb 10
New

Hourly Weather History & Observations

Time (EST) Temp. Windchill Dew Point Humidity Pressure Visibility Wind Dir Wind Speed Gust Speed Precip Events Conditions
12:53 AM 25.0 °F - 17.1 °F 72% 30.27 in 10.0 mi Calm Calm - N/A   Mostly Cloudy
1:53 AM 25.0 °F 20.7 °F 18.0 °F 75% 30.27 in 10.0 mi SSW 3.5 mph - N/A   Overcast
2:53 AM 25.0 °F - 19.0 °F 78% 30.25 in 10.0 mi Calm Calm - N/A   Mostly Cloudy
3:53 AM 26.1 °F 21.9 °F 17.1 °F 69% 30.22 in 10.0 mi SSE 3.5 mph - N/A   Overcast
4:53 AM 26.1 °F - 18.0 °F 71% 30.20 in 10.0 mi Calm Calm - N/A   Overcast
5:53 AM 26.1 °F - 18.0 °F 71% 30.19 in 10.0 mi Calm Calm - N/A   Overcast
6:53 AM 27.0 °F - 19.0 °F 72% 30.18 in 10.0 mi Calm Calm - N/A   Overcast
7:53 AM 27.0 °F - 18.0 °F 69% 30.18 in 9.0 mi Calm Calm - N/A   Overcast
8:20 AM 26.6 °F 21.2 °F 19.4 °F 74% 30.17 in 4.0 mi SSE 4.6 mph - 0.00 in Snow Light Snow
8:28 AM 26.6 °F 21.2 °F 19.4 °F 74% 30.17 in 1.8 mi SSE 4.6 mph - 0.00 in Snow Light Snow
8:44 AM 26.6 °F 22.6 °F 21.2 °F 80% 30.17 in 0.8 mi SSE 3.5 mph - 0.00 in Snow Light Snow
8:53 AM 25.0 °F 20.7 °F 23.0 °F 92% 30.19 in 0.5 mi SSE 3.5 mph - 0.00 in Fog , Snow Light Snow
9:02 AM 24.8 °F - 24.8 °F 100% 30.16 in 0.5 mi Calm Calm - 0.00 in Fog , Snow Light Snow
9:16 AM 26.6 °F 22.6 °F 24.8 °F 93% 30.16 in 0.8 mi ESE 3.5 mph - 0.01 in Snow Light Snow
9:49 AM 26.6 °F 22.6 °F 24.8 °F 93% 30.15 in 1.5 mi East 3.5 mph - 0.02 in Snow Light Snow
9:53 AM 26.1 °F 20.5 °F 24.1 °F 92% 30.15 in 1.5 mi East 4.6 mph - 0.02 in Snow Light Snow
10:17 AM 26.6 °F 22.6 °F 24.8 °F 93% 30.13 in 1.0 mi East 3.5 mph - 0.00 in Snow Light Snow
10:34 AM 26.6 °F 19.1 °F 24.8 °F 93% 30.11 in 1.0 mi NE 6.9 mph - 0.01 in Snow Light Snow
10:53 AM 27.0 °F 20.5 °F 24.1 °F 89% 30.10 in 1.0 mi NE 5.8 mph - 0.01 in Snow Light Snow
11:53 AM 27.0 °F 21.6 °F 24.1 °F 89% 30.04 in 0.8 mi ENE 4.6 mph - 0.01 in Snow Light Snow
12:02 PM 26.6 °F 18.2 °F 24.8 °F 93% 30.03 in 1.2 mi ENE 8.1 mph - 0.01 in Snow Light Snow
12:13 PM 26.6 °F 20.0 °F 24.8 °F 93% 30.01 in 2.0 mi ENE 5.8 mph - 0.01 in Snow Light Snow
12:39 PM 28.4 °F 24.6 °F 24.8 °F 86% 30.00 in 1.0 mi ENE 3.5 mph - 0.01 in Snow Light Snow
12:53 PM 28.0 °F 22.8 °F 25.0 °F 88% 29.99 in 1.5 mi East 4.6 mph - 0.01 in Snow Light Snow
1:30 PM 28.4 °F 22.2 °F 26.6 °F 93% 29.95 in 3.0 mi East 5.8 mph - 0.01 in Snow Light Snow
1:50 PM 28.4 °F 22.2 °F 26.6 °F 93% 29.95 in 2.5 mi ENE 5.8 mph - 0.01 in Snow Light Snow
1:53 PM 28.4 °F 24.6 °F 26.6 °F 93% 29.95 in 2.0 mi NE 3.5 mph - N/A Snow Light Snow
2:23 PM 28.4 °F 23.3 °F 26.6 °F 93% 29.93 in 1.0 mi East 4.6 mph - 0.01 in Snow Light Snow
2:53 PM 28.4 °F 22.2 °F 26.6 °F 93% 29.90 in 0.8 mi NE 5.8 mph - N/A Snow Light Snow
3:05 PM 28.4 °F 21.2 °F 26.6 °F 93% 29.92 in 1.2 mi North 6.9 mph - 0.00 in Snow Light Snow
3:21 PM 28.4 °F 22.2 °F 26.6 °F 93% 29.90 in 0.8 mi NNE 5.8 mph - 0.01 in Snow Light Snow
3:53 PM 28.9 °F 23.9 °F 28.0 °F 96% 29.89 in 0.8 mi NE 4.6 mph - 0.03 in Snow Light Snow
4:04 PM 28.4 °F 23.3 °F 28.4 °F 100% 29.88 in 1.2 mi NE 4.6 mph - 0.01 in Snow Light Snow
4:29 PM 28.4 °F 23.3 °F 28.4 °F 100% 29.87 in 0.8 mi NNE 4.6 mph - 0.02 in Snow Light Snow
4:53 PM 28.0 °F 21.7 °F 27.0 °F 96% 29.88 in 0.8 mi NNE 5.8 mph - 0.04 in Snow Light Snow
5:06 PM 28.4 °F 24.6 °F 26.6 °F 93% 29.87 in 1.0 mi North 3.5 mph - 0.01 in Snow Light Snow
5:33 PM 28.4 °F - 28.4 °F 100% 29.87 in 1.5 mi Calm Calm - 0.02 in Snow Light Snow
5:53 PM 28.9 °F - 28.0 °F 96% 29.87 in 1.5 mi Calm Calm - 0.02 in Snow Light Snow
6:16 PM 28.4 °F - 28.4 °F 100% 29.84 in 2.0 mi Calm Calm - N/A Snow Light Snow
6:50 PM 28.4 °F 23.3 °F 28.4 °F 100% 29.82 in 3.0 mi SE 4.6 mph - 0.01 in Snow Light Snow
6:53 PM 28.9 °F 25.2 °F 28.0 °F 96% 29.83 in 3.0 mi SE 3.5 mph - 0.01 in Snow Light Snow
7:14 PM 28.4 °F - 28.4 °F 100% 29.81 in 5.0 mi Calm Calm - 0.00 in Snow Light Snow
7:53 PM 30.0 °F - 28.9 °F 96% 29.81 in 6.0 mi Calm Calm - 0.00 in Snow Light Snow
8:53 PM 30.9 °F 27.5 °F 30.9 °F 100% 29.80 in 5.0 mi South 3.5 mph - 0.00 in Snow Light Snow
9:53 PM 32.0 °F - 32.0 °F 100% 29.78 in 6.0 mi Calm Calm - 0.00 in Snow Light Snow
10:34 PM 32.0 °F - 32.0 °F 100% 29.76 in 2.5 mi Calm Calm - 0.00 in Snow Light Snow
10:53 PM 32.0 °F 28.7 °F 32.0 °F 100% 29.77 in 2.5 mi WSW 3.5 mph - 0.00 in Snow Light Snow
11:53 PM 30.9 °F 26.2 °F 30.9 °F 100% 29.76 in 2.5 mi WNW 4.6 mph - 0.01 in Snow Light Snow